Regional Weather Roundup
Issued by NWS Bismarck, ND

Home | Current Version | Previous Version | Text Only | Print | Product List | Glossary On
Versions: 1 2 3 4 5 6 7 8 9 10 11 12 13 14 15 16 17 18 19 20 21 22 23 24 25 26 27 28 29 30 31 32 33 34 35 36 37 38 39 40 41 42 43 44 45 46 47 48 49 50
000
ASUS43 KBIS 191110
RWRBIS

NWR BROADCAST TEXT
NATIONAL WEATHER SERVICE BISMARCK ND
500 AM CST SUN FEB 19 2017

NOTE: "FAIR" INDICATES FEW OR NO CLOUDS BELOW 12,000 FEET WITH NO
SIGNIFICANT WEATHER AND/OR OBSTRUCTIONS TO VISIBILITY.


CITY           SKY/WX    TMP DP  RH WIND       PRES   REMARKS
WILLISTON      FAIR      33  30  88 E8        29.60F
MINOT          FAIR      32  29  88 E9        29.65F
MINOT AFB      FAIR      31  28  90 E14       29.65F
BISMARCK       FAIR      35  32  88 E8        29.62F
DICKINSON      FOG       29  28  96 E8        29.53F VSB 1/4
GARRISON         N/A     33  31  92 E12       29.61F
HETTINGER ARPT FAIR      31  29  92 CALM      29.56R
JAMESTOWN      FAIR      35  34  96 E9        29.69F
CARRINGTON     FAIR      34  34 100 E15       29.71F
HAZEN            N/A    N/A N/A N/A NE3       29.62S
MANDAN         PTSUNNY   32  32 100 E10       29.61F
RUGBY            N/A     32  32 100 E21       29.69F WCI  20
STANLEY        FAIR      30  30 100 E9        29.64F
TIOGA          FAIR      30  30 100 E15       29.63R WCI  19
WATFORD CITY   CLOUDY    32  32 100 N3        29.59F
$$

CITY           SKY/WX    TMP DP  RH WIND       PRES   REMARKS
GRAND FORKS    FAIR      35  29  78 E10       29.80F
GRAND FORKS AF FAIR      33  31  93 E7        29.80F
DEVILS LAKE    CLOUDY    35  30  82 E21       29.73F
FARGO          FAIR      38  35  89 E9        29.78F
CAVALIER       PTSUNNY   32  32 100 E6        29.84S
GRAFTON        FAIR      34  32  93 E9        29.84F
GWINNER        FAIR      36  36 100 E7        29.74S
ROLLA          FAIR      32  32 100 E13       29.75F
$$

CITY           SKY/WX    TMP DP  RH WIND       PRES   REMARKS
ABERDEEN       FAIR      39  33  79 S12       29.72R
MOBRIDGE       FAIR      39  31  72 SE13      29.60S
BUFFALO          N/A     41  33  73 S8        29.47S
RAPID CITY     FAIR      39  30  70 SE5       29.57S
GLASGOW        MOCLDY    33  30  88 SE8       29.50R
SIDNEY         FAIR      29  27  92 NE7       29.57F
WOLF POINT     FAIR      31  28  89 E14       29.54F
GLENDIVE       FAIR      30  29  96 NE9       29.52F
MILES CITY     FAIR      32  29  88 NE8       29.47S
BAKER          FAIR      30  27  88 SE7       29.51F
$$

CITY           SKY/WX    TMP DP  RH WIND       PRES   REMARKS
BILLINGS       FAIR      40  32  73 CALM      29.44S
GREAT FALLS    FAIR      47  30  51 S15G24    29.34S
REGINA         MOCLDY    34  27  75 E22G30    29.62F
ESTEVAN        MOCLDY    30  28  93 E15       29.65F WCI  19
$$





USA.gov is the U.S. government's official web portal to all federal, state and local government web resources and services.